Theta_e
356 356 355 354 357 358 357 357 355 353 350 347 347 346 346 348 347 345 351 355 356 355 354 354 353 351 350 349 347 342 336 333 334 335 335 334 332 331 331 330 330 331 331 331 332 331 331 331 331 332 333 334 335 336 336 337 337 337 337 338 338 338 338 338 338 338 337 338 339 340 340 341 341 341 341 342 342 343 342 344 346 347 346 346 345
357 358 357 356 357 357 357 356 356 356 354 350 346 345 346 348 347 348 353 355 355 354 353 353 352 350 349 347 343 337 333 334 335 335 334 333 332 331 331 331 331 331 331 331 331 331 331 332 332 333 334 335 336 337 337 337 337 338 338 338 339 339 339 339 339 338 337 338 340 340 340 341 341 341 340 341 342 343 343 344 345 345 344 344 344
358 358 358 356 357 358 357 355 355 355 355 352 351 349 348 348 348 350 352 354 354 353 352 352 350 349 348 342 337 334 334 335 335 334 332 331 331 332 332 332 331 331 331 331 331 332 332 333 334 335 336 336 336 337 337 337 338 338 339 339 339 339 339 339 339 338 338 338 339 340 340 341 341 341 340 340 341 342 343 343 342 342 341 341 341
358 357 357 356 356 357 357 355 353 353 354 353 352 350 349 350 351 352 353 353 353 352 351 350 349 348 344 336 333 334 335 335 333 332 331 332 332 332 332 331 331 331 331 331 331 331 333 334 335 336 336 337 337 336 336 337 337 338 339 339 339 339 339 339 339 339 338 338 339 340 340 340 340 340 339 340 341 342 342 341 341 341 340 340 339
357 357 357 356 356 355 356 355 352 351 353 352 350 350 351 353 354 353 354 354 352 351 350 349 348 345 339 333 333 335 335 334 332 332 332 333 333 333 332 331 331 331 332 331 331 331 333 335 336 337 337 337 337 336 336 337 337 337 338 338 338 338 338 338 338 339 338 338 339 339 339 339 339 339 339 340 341 341 341 341 341 340 340 340 339
355 355 356 356 355 354 354 354 353 351 350 350 351 352 353 355 355 355 355 354 351 350 349 347 346 343 336 332 333 335 335 333 332 332 333 333 334 333 331 330 330 331 331 331 331 332 332 334 336 337 338 338 337 336 336 336 336 336 337 337 337 337 338 338 338 338 338 338 338 339 339 339 339 339 339 340 341 340 340 340 340 340 340 339 338
354 354 355 355 354 354 352 352 352 350 350 351 352 353 355 356 356 355 354 352 350 348 346 345 345 340 333 331 333 335 334 333 333 333 333 334 334 333 332 331 330 331 331 331 331 332 332 333 336 337 337 338 338 337 337 336 334 334 335 334 335 335 335 336 336 337 337 337 337 338 338 339 339 339 339 340 340 340 339 340 340 339 339 338 337
354 353 354 354 354 353 352 352 350 349 351 353 353 354 356 356 355 354 352 350 349 347 345 345 343 335 330 331 334 335 334 333 333 333 334 334 334 333 332 331 331 331 331 331 331 333 335 335 335 335 333 335 338 338 338 336 332 331 333 333 333 333 333 333 334 335 335 336 336 337 338 338 339 339 339 339 340 339 340 340 340 339 337 336 335
353 353 353 353 353 352 354 354 352 351 353 354 355 356 356 356 355 353 350 349 347 345 345 344 340 332 328 331 335 335 334 334 334 333 334 335 334 333 332 331 331 331 331 332 332 333 334 334 334 333 330 331 337 340 339 337 334 331 332 332 331 332 332 331 332 333 334 334 335 336 337 338 338 339 339 339 339 339 339 340 338 337 335 334 333
354 352 351 351 352 353 356 356 354 355 356 356 356 357 356 355 354 351 349 348 346 345 344 341 335 329 327 330 334 335 334 334 334 333 334 335 334 333 332 331 331 331 331 332 332 332 332 332 332 330 326 330 337 340 339 338 336 335 334 333 332 332 331 331 331 331 332 333 334 335 336 336 338 339 339 339 339 339 339 339 338 336 334 333 331
353 352 351 351 352 355 359 359 357 358 358 357 357 356 355 354 352 350 348 347 346 345 342 337 331 327 326 329 334 335 334 334 335 334 335 335 333 333 332 332 332 332 332 332 331 331 331 331 329 325 325 332 338 339 338 338 337 336 336 336 334 333 331 331 331 331 331 332 333 334 334 335 337 339 339 339 339 339 339 338 337 336 334 333 331
353 352 351 352 353 357 360 361 360 359 358 357 357 356 354 352 351 349 348 347 345 343 339 334 329 326 326 328 332 335 335 335 335 335 335 334 333 333 333 332 331 329 330 331 330 330 330 329 327 326 329 335 337 337 337 338 336 335 335 335 334 333 332 331 330 331 331 332 332 333 334 335 337 338 338 338 338 338 338 337 336 335 333 332 332
353 352 352 352 355 358 360 361 361 360 360 358 357 355 353 352 351 350 348 346 344 340 336 333 329 326 327 329 333 334 335 335 335 334 333 333 333 331 327 324 324 323 324 327 328 329 328 329 331 331 333 336 336 335 335 334 334 333 333 334 333 333 332 331 330 331 332 332 332 333 335 336 337 338 338 338 338 337 337 336 335 333 332 332 331
354 354 352 353 357 360 361 361 360 360 360 359 357 356 353 352 351 349 347 344 341 338 336 332 328 327 329 331 333 334 334 335 334 333 334 333 329 325 321 321 323 325 325 327 328 328 330 332 334 334 334 335 335 335 333 333 333 333 333 334 334 333 333 332 330 331 331 332 332 333 335 337 337 337 338 338 337 337 337 336 334 333 333 333 333
356 356 355 356 358 361 362 362 361 361 360 359 358 355 353 352 350 348 346 343 340 338 336 332 327 327 330 332 333 334 334 334 335 335 334 330 326 325 325 324 325 327 328 328 329 330 332 334 334 334 334 335 335 334 334 333 333 333 332 333 334 334 333 331 330 330 330 331 332 333 335 337 337 337 337 337 337 337 336 335 334 333 334 334 334
359 359 358 358 360 362 363 362 362 362 361 359 358 355 354 352 350 347 344 341 339 338 335 331 327 328 331 332 333 333 333 334 335 333 329 326 328 331 329 324 325 328 329 329 330 331 333 333 334 333 334 334 335 334 333 333 333 331 331 333 334 333 330 328 327 328 329 329 331 332 334 336 337 337 337 337 337 337 336 335 334 334 335 335 335
361 361 360 360 361 363 364 363 362 362 361 359 357 356 354 352 349 347 343 340 338 336 334 330 327 328 331 332 333 333 333 335 331 325 325 328 331 333 330 325 326 329 329 330 331 332 332 333 333 333 333 334 334 334 333 332 331 331 333 333 331 327 324 324 324 325 326 328 330 332 334 336 337 337 337 337 337 337 336 336 335 335 335 335 335
363 362 362 361 362 364 364 363 362 362 361 360 358 356 354 351 348 346 343 341 338 335 333 330 327 328 330 331 332 333 334 335 330 325 329 332 332 333 330 325 326 329 329 330 331 331 332 332 332 333 333 333 333 332 331 330 329 331 332 330 326 323 322 324 324 324 324 326 330 332 334 336 337 337 337 337 337 337 336 336 335 335 335 335 336
364 364 363 362 364 366 365 364 363 362 361 360 359 356 353 350 348 345 343 341 337 335 333 330 327 329 331 331 332 333 334 335 332 331 332 332 332 333 330 324 325 329 329 329 330 331 331 331 331 332 331 330 329 328 327 327 329 331 329 325 323 323 324 325 326 325 323 324 327 331 333 334 336 337 336 337 337 337 336 336 336 336 336 336 336
364 364 364 364 365 367 367 365 364 362 361 360 358 355 352 349 347 344 342 339 336 334 332 329 327 329 331 331 332 333 334 334 334 333 333 333 333 333 328 323 325 328 328 327 328 329 329 329 329 328 327 326 326 325 325 325 328 329 328 326 326 326 326 326 327 327 325 322 323 329 333 334 335 336 336 336 336 336 336 336 336 336 336 336 335
365 365 365 365 366 368 368 366 365 363 362 360 357 353 351 349 346 343 340 338 335 334 332 328 327 328 330 331 332 333 334 334 334 333 333 334 335 333 327 324 326 327 327 327 327 327 327 327 327 327 326 326 326 326 326 325 325 327 328 328 327 326 326 326 327 328 327 323 320 323 329 333 334 334 335 335 335 336 336 336 336 336 336 336 335
365 365 365 365 366 368 368 366 365 363 361 359 355 352 349 347 345 342 339 337 335 333 331 328 327 328 329 330 331 333 333 334 334 334 334 335 336 334 330 325 324 326 327 326 326 326 326 326 327 327 327 327 328 329 329 327 326 324 325 326 326 324 324 325 326 327 327 326 321 319 321 327 330 332 333 333 334 334 334 335 335 335 335 335 335
366 365 366 366 367 368 368 367 365 362 360 358 354 350 348 346 343 341 339 337 334 332 330 329 328 328 329 329 331 332 333 333 334 334 334 335 335 333 330 325 323 325 327 326 326 326 326 326 327 327 328 328 328 329 329 329 328 325 323 323 323 323 323 324 325 325 326 327 325 320 317 320 324 329 331 332 332 332 332 332 332 333 334 334 334
366 367 366 367 368 369 368 366 364 362 359 356 352 349 347 344 342 340 338 336 334 332 331 330 330 330 329 328 329 331 332 332 333 334 334 334 332 330 328 323 321 324 326 325 325 325 325 326 327 327 328 328 328 328 328 328 328 327 326 325 324 323 324 324 325 325 325 326 326 324 320 318 319 323 327 330 330 330 330 330 330 330 331 331 331
367 367 367 367 368 368 368 366 364 361 358 355 351 348 346 344 341 339 338 336 334 332 332 331 331 330 329 327 328 329 330 331 332 333 333 333 330 329 327 321 319 322 324 323 324 324 324 324 325 326 326 326 326 326 327 326 327 327 327 327 326 325 324 324 324 325 325 325 325 325 324 322 320 320 322 324 325 325 326 326 327 327 327 327 327
367 367 368 369 368 368 367 364 362 360 356 353 351 348 346 343 341 339 337 336 334 333 332 332 331 330 330 329 328 328 328 330 332 331 331 331 329 329 327 321 317 321 324 324 324 325 324 325 325 325 325 325 325 325 325 325 326 326 326 326 326 325 324 324 323 323 324 325 325 324 324 324 324 322 321 322 323 324 324 324 324 323 323 323 323
367 367 368 369 369 367 366 363 360 357 354 351 349 347 345 343 341 339 337 336 335 334 333 333 332 331 330 330 328 326 326 328 330 330 330 330 329 329 327 321 317 321 325 325 325 325 325 326 326 326 326 326 326 326 326 325 324 324 325 325 324 323 323 323 323 322 322 323 324 324 324 324 324 324 324 323 323 323 324 325 324 323 322 321 322
366 368 369 369 368 366 364 362 359 355 352 350 348 345 344 342 341 339 338 337 336 335 334 334 333 331 330 329 326 323 324 327 329 329 330 330 328 328 328 321 318 322 325 324 324 326 326 326 327 326 326 326 326 326 327 326 323 321 321 322 322 321 320 321 322 323 322 323 323 323 323 323 322 323 324 324 325 324 324 325 325 325 324 322 322
366 368 368 368 367 365 363 360 357 353 350 349 346 344 343 342 340 340 339 338 338 336 335 334 333 331 331 328 324 322 322 325 326 327 328 329 328 328 327 321 318 321 325 324 325 326 327 328 328 327 327 326 325 325 326 327 325 322 321 321 320 320 320 319 320 321 321 321 321 321 321 322 321 321 321 323 324 325 324 324 324 324 324 324 324
368 367 368 367 364 363 361 357 355 352 349 347 345 343 342 341 340 339 338 338 337 336 334 334 333 331 330 327 323 322 321 322 323 325 326 326 327 326 321 317 318 324 325 323 323 325 327 328 329 328 329 328 326 324 325 326 325 324 323 322 321 320 320 319 318 319 319 319 319 318 319 319 320 320 320 321 323 323 322 323 323 323 322 323 324
368 366 366 365 362 361 358 354 352 350 348 346 343 341 340 340 339 338 338 337 336 335 334 333 331 330 330 326 322 321 320 320 321 321 321 322 323 320 315 313 318 322 322 321 322 324 325 327 328 328 329 329 327 324 323 324 323 323 322 321 321 321 321 320 319 319 319 318 318 318 317 317 318 320 320 321 321 322 321 322 322 321 319 318 320
366 364 364 362 360 358 355 352 350 347 344 343 341 341 341 339 336 336 336 336 335 334 333 331 328 328 330 328 323 322 320 320 319 319 318 318 318 316 315 316 319 321 322 325 327 326 325 326 328 327 327 328 328 325 323 322 321 321 321 320 321 322 321 320 320 320 320 320 319 318 317 317 318 320 320 320 321 321 322 322 321 320 318 316 316
364 361 358 356 354 351 349 349 348 345 343 342 341 342 341 337 334 334 335 335 334 333 332 330 329 329 331 329 326 324 321 320 320 318 317 317 318 320 323 326 326 327 328 329 329 327 325 326 327 326 325 326 326 325 323 322 321 321 320 320 321 322 321 321 320 320 320 320 319 319 318 316 317 319 319 319 320 322 323 323 321 319 317 316 316
360 357 352 349 348 346 343 343 343 343 343 343 342 341 339 336 335 334 333 333 333 333 331 330 330 331 331 330 329 327 323 321 320 319 317 317 318 321 325 328 329 330 330 329 328 326 325 326 328 326 324 324 324 323 323 322 322 322 321 320 321 322 322 321 320 320 320 320 319 319 317 316 316 317 318 318 319 321 322 322 320 318 317 316 317
357 355 351 347 346 344 341 340 341 342 342 342 342 340 338 336 335 334 333 332 332 332 332 331 331 332 333 332 331 330 327 322 320 319 318 317 318 321 324 327 328 328 328 328 327 324 325 328 328 326 324 324 323 323 322 322 321 322 321 320 320 321 322 321 319 319 320 320 319 319 317 316 316 317 317 318 318 319 321 320 319 318 318 318 318
354 352 350 347 346 344 342 341 342 342 342 341 340 339 337 335 334 333 333 332 332 332 332 332 333 334 334 333 333 332 329 325 323 322 319 319 321 325 327 328 328 328 328 327 324 322 326 329 328 325 325 324 323 323 322 322 322 322 322 322 321 321 321 320 319 319 319 320 319 319 318 317 317 317 318 317 318 319 320 320 319 319 319 319 319
353 351 348 346 345 345 344 342 342 342 340 340 338 337 335 333 333 333 332 331 332 331 330 331 332 333 333 333 333 332 330 328 328 325 322 322 325 328 329 328 328 328 329 326 321 322 327 329 327 326 325 324 324 324 323 323 324 324 323 322 322 321 321 320 320 319 319 319 319 319 318 318 318 318 318 318 318 319 320 320 320 319 320 320 320
353 352 349 347 346 345 343 341 340 338 338 337 336 335 334 332 332 332 331 331 331 329 329 331 331 331 332 333 333 332 331 330 329 327 325 325 326 327 328 328 327 327 327 322 319 323 328 328 326 326 326 324 324 324 323 323 324 324 323 323 323 322 321 321 321 320 319 319 319 319 319 318 318 318 318 319 318 319 320 321 320 320 320 320 320
351 351 350 348 347 345 343 341 339 337 335 333 332 333 332 331 330 330 330 330 329 329 329 331 330 330 331 333 332 331 330 329 328 326 326 325 326 326 326 325 324 324 322 318 318 324 328 326 326 326 326 325 325 324 324 324 323 322 322 322 320 318 319 320 321 320 319 319 319 319 319 319 319 318 319 319 319 319 320 320 321 321 321 321 321
347 346 346 345 344 342 340 339 338 336 334 332 331 331 331 330 329 329 329 328 328 328 329 329 329 329 331 332 332 331 329 327 327 327 326 325 324 323 321 319 317 317 315 313 317 324 326 325 325 326 325 325 326 325 324 325 323 321 320 320 318 316 317 319 320 320 320 319 318 319 319 319 319 319 319 319 319 319 320 320 321 321 321 321 321
346 344 343 343 342 340 338 337 336 335 334 332 331 330 330 329 329 328 327 327 327 327 327 327 328 330 331 332 331 331 329 328 329 328 326 324 321 317 315 314 313 312 311 311 316 322 323 324 325 326 325 325 326 325 324 325 324 322 320 320 320 320 319 319 319 320 320 319 318 318 319 319 319 319 320 319 319 319 319 320 320 320 321 321 321
345 343 342 341 340 339 337 336 335 335 334 332 331 330 329 329 328 328 327 327 326 326 326 325 325 328 330 330 330 330 329 328 328 326 323 320 317 315 314 312 311 311 311 311 316 321 324 325 326 326 325 325 325 324 324 325 325 324 322 321 322 322 322 321 320 320 319 318 318 318 319 318 318 318 319 320 320 320 319 319 319 319 320 321 320
344 343 342 340 339 338 337 335 335 334 333 332 332 330 329 329 329 328 328 327 327 326 325 323 323 325 326 327 327 326 325 324 323 322 320 319 318 317 316 313 312 311 310 312 318 323 325 326 326 325 325 325 324 323 323 324 324 325 324 322 322 322 322 322 321 320 319 318 318 318 318 317 318 318 318 319 320 320 319 319 318 317 318 318 318
343 342 340 339 338 337 337 335 335 333 333 332 332 331 330 329 328 328 328 327 327 326 325 324 324 324 324 323 323 321 321 320 320 320 321 320 319 318 316 314 312 311 310 315 322 325 324 324 326 325 325 325 324 323 322 322 323 325 325 323 322 322 322 321 321 320 319 318 318 318 316 315 316 317 318 319 319 319 319 319 318 318 317 317 317
342 341 339 338 338 336 336 335 335 333 333 332 332 331 330 329 329 328 328 328 327 327 326 324 324 324 324 323 322 320 320 321 320 320 321 320 319 317 315 312 310 310 310 315 321 323 321 322 325 325 324 324 324 323 322 321 321 323 324 321 320 321 322 321 320 320 320 319 318 318 316 315 316 317 318 318 319 319 320 320 319 318 318 318 318
342 340 339 338 337 336 336 335 334 334 333 332 331 331 330 330 329 329 328 328 328 327 326 325 324 323 323 323 323 322 322 321 320 320 320 319 318 316 313 309 308 309 310 312 317 319 319 321 324 325 325 324 323 323 322 320 318 320 322 322 321 322 322 321 321 320 319 318 318 318 316 316 316 317 317 318 318 319 319 319 319 318 319 319 319
343 341 339 337 337 336 335 334 334 333 333 332 331 331 330 330 329 329 328 328 328 327 327 326 325 324 323 323 324 323 323 322 321 320 320 319 317 315 311 308 307 308 309 310 312 315 317 320 323 325 324 323 322 323 323 321 318 318 321 322 323 323 322 322 321 321 319 319 319 317 316 316 316 316 317 318 319 319 319 319 318 318 319 319 319
344 342 339 337 336 336 335 334 334 333 332 332 331 331 330 330 329 328 328 328 328 327 327 327 326 325 324 324 324 324 324 323 322 321 319 318 317 314 310 308 309 312 314 313 311 311 315 321 324 325 324 323 323 324 323 322 319 318 319 321 322 322 322 322 321 320 320 320 319 318 317 317 316 316 317 318 318 319 320 319 318 318 319 319 319
345 342 339 338 336 336 335 334 333 333 332 332 331 331 330 329 329 328 328 327 327 327 327 327 326 326 325 324 324 325 324 323 322 320 319 318 316 313 310 311 314 317 318 318 315 314 316 322 325 325 324 323 324 324 323 323 321 320 319 319 319 320 321 322 321 320 320 320 319 319 318 318 318 317 317 317 318 319 319 319 319 319 319 318 318
345 343 340 338 337 336 335 334 333 333 333 332 331 331 330 329 329 328 327 327 327 327 327 327 327 326 326 325 325 325 325 324 322 320 318 319 317 313 310 314 319 321 320 320 320 319 320 323 324 324 324 324 324 324 323 323 323 322 320 318 318 318 320 321 321 320 320 320 320 320 320 319 319 318 317 317 317 319 319 319 319 320 320 319 319
343 342 340 339 337 336 335 334 333 333 332 332 331 331 330 329 329 328 328 327 327 327 327 327 327 327 327 326 326 325 325 325 323 321 319 320 319 314 311 315 321 324 323 322 322 322 322 323 324 325 325 325 325 325 324 324 324 324 323 321 318 317 319 321 321 321 320 320 320 321 320 319 319 319 319 318 317 318 319 320 320 321 320 320 320
Wind_Speed
30 29 29 27 25 25 24 24 22 20 19 21 23 23 23 19 12 6 14 21 20 17 16 14 11 8 6 5 4 4 5 6 7 8 9 10 11 11 13 14 14 14 13 14 14 14 14 15 16 16 16 17 17 17 16 16 15 15 14 14 13 12 11 8 4 5 8 12 14 13 12 13 13 11 10 11 12 11 11 12 10 8 8 8 9
31 30 28 27 26 25 25 25 24 22 20 19 20 21 20 15 10 11 18 20 18 16 15 12 9 7 5 4 4 4 5 7 8 8 8 10 12 13 12 11 12 12 12 13 14 14 14 16 16 16 17 17 17 16 16 16 16 16 16 14 13 12 11 10 6 4 7 13 15 13 13 15 15 13 13 13 13 13 14 14 13 13 13 12 12
33 31 28 26 26 25 24 24 24 24 23 22 21 22 18 12 11 16 19 19 17 14 12 10 8 5 4 5 5 5 7 8 8 8 10 12 14 12 10 10 10 10 11 13 14 14 14 16 16 16 16 17 17 16 16 17 17 17 17 15 14 13 11 10 8 5 7 11 15 15 15 17 16 14 13 13 13 14 17 18 17 16 16 15 15
32 31 28 26 26 26 25 25 25 25 25 24 23 21 16 14 16 18 19 18 16 14 12 9 6 5 6 7 7 7 8 8 9 11 14 14 13 11 10 10 10 9 10 12 13 13 14 15 15 15 15 17 17 17 16 17 17 17 17 16 16 15 13 12 11 10 10 11 15 17 16 16 16 13 13 14 14 16 18 19 18 18 18 17 17
32 31 29 27 27 27 27 26 25 26 25 23 20 18 17 18 20 20 20 18 16 14 11 8 6 7 8 8 8 8 8 9 11 14 15 13 11 10 10 10 9 8 8 10 12 13 14 14 14 14 15 15 17 18 17 16 16 16 16 16 16 15 15 15 15 15 15 14 15 17 17 17 16 14 14 14 15 17 17 17 17 18 18 18 17
32 31 30 29 29 29 28 27 27 26 22 19 18 19 19 21 22 21 19 18 15 12 10 9 9 9 9 8 8 9 9 10 13 13 13 11 10 10 10 9 9 8 6 7 10 11 11 11 12 13 14 14 15 17 17 16 15 16 15 15 15 15 16 16 16 16 17 16 15 17 18 18 17 16 15 14 15 16 17 18 18 17 18 18 17
34 33 32 30 28 27 26 26 28 25 19 19 20 19 20 21 22 21 18 16 14 12 11 11 10 9 9 9 10 10 11 13 13 12 11 10 10 9 9 9 9 8 7 6 7 7 8 8 9 11 12 12 13 15 16 16 16 16 16 16 15 16 16 16 16 17 16 16 16 16 17 18 18 16 14 14 14 15 16 17 17 17 17 17 17
35 34 33 31 26 22 21 24 27 25 21 20 20 20 21 22 21 20 17 15 13 13 13 12 10 10 10 11 12 12 13 14 13 12 10 9 9 8 8 8 8 8 7 5 5 6 6 7 7 8 9 9 10 13 14 15 17 18 18 17 16 17 17 17 17 17 16 17 16 15 16 17 18 17 15 15 15 14 14 16 17 18 17 16 16
35 35 33 31 25 20 18 21 24 26 25 24 22 22 23 23 21 19 17 15 14 14 12 11 10 11 12 13 14 14 14 14 13 11 10 9 9 8 7 7 7 7 6 4 5 5 5 5 5 5 6 6 8 11 12 12 16 19 19 18 18 18 18 18 18 17 17 17 16 15 15 16 17 17 16 15 14 14 14 17 20 20 19 19 19
36 35 32 29 25 20 18 19 24 28 28 26 25 25 25 23 22 20 18 17 16 14 13 11 11 11 12 15 16 16 15 14 13 11 10 10 9 8 7 7 7 6 5 4 4 3 2 2 4 5 4 4 6 10 11 11 12 15 16 17 18 19 19 19 18 16 15 15 15 14 14 14 15 15 15 13 13 13 14 17 18 18 18 19 19
35 34 32 28 25 22 22 24 27 28 27 27 26 26 25 24 23 21 20 18 16 15 14 12 12 11 12 15 17 17 16 14 12 11 11 10 8 8 8 7 6 5 4 3 3 2 1 3 4 2 4 5 6 8 10 11 11 12 13 14 15 17 19 19 17 16 15 15 15 16 14 13 14 14 14 13 13 13 14 15 16 16 16 16 14
35 33 30 28 27 26 25 26 27 27 27 27 27 26 26 25 24 22 20 19 17 16 15 13 12 11 12 16 18 18 16 14 12 11 11 10 9 8 7 5 4 3 3 2 2 1 2 3 4 5 8 8 7 9 11 11 10 12 12 12 12 14 17 19 18 17 16 16 17 17 15 14 13 13 12 12 14 16 17 18 18 18 18 17 14
35 32 28 28 29 29 27 27 27 27 27 27 27 26 26 25 24 23 21 20 19 17 16 14 13 13 15 17 19 19 17 14 13 13 12 10 9 8 7 6 5 4 3 3 3 2 4 7 8 9 9 9 9 11 12 11 11 12 12 12 11 12 15 18 19 18 18 18 19 18 15 13 13 11 10 11 15 18 19 19 19 21 21 19 17
33 31 28 29 30 30 29 29 28 28 28 28 27 27 26 25 24 23 22 21 20 19 17 15 14 15 17 19 21 20 17 14 14 13 12 10 10 10 10 10 9 7 6 5 6 7 9 10 11 11 11 10 10 11 11 11 11 11 11 11 10 10 11 14 16 17 18 19 19 18 15 12 11 10 10 12 16 19 19 19 20 21 20 18 17
32 31 29 30 30 31 31 31 30 30 29 29 28 28 27 26 25 24 23 22 21 20 19 17 16 17 19 20 21 20 17 14 13 12 12 12 12 12 11 12 11 10 9 9 10 11 11 12 13 13 12 11 9 9 9 9 9 10 11 12 11 10 11 12 14 16 16 17 17 17 15 12 9 10 12 13 16 18 19 21 22 21 19 17 15
31 30 30 30 31 32 32 32 32 31 31 30 30 29 28 27 26 26 24 23 22 21 20 18 18 19 20 21 22 20 17 15 13 12 13 13 12 11 11 12 12 13 13 13 12 11 11 12 13 13 13 12 10 9 9 9 9 11 13 14 13 12 13 13 13 14 14 14 14 15 15 12 8 9 12 15 17 18 19 20 20 19 18 16 15
30 31 31 32 32 33 33 33 33 33 33 32 31 31 30 29 28 27 26 26 25 24 21 20 19 20 22 22 23 22 19 16 15 15 15 14 12 11 10 11 13 14 14 13 13 12 11 11 12 13 13 13 11 9 9 10 11 13 16 16 15 15 15 15 15 15 14 13 12 13 15 13 11 10 11 14 15 15 17 17 16 16 16 14 12
30 31 32 33 33 33 34 34 34 34 34 34 33 32 31 31 30 29 28 28 27 25 23 21 20 20 22 23 23 22 20 18 17 16 15 14 12 11 9 10 13 14 14 13 13 12 12 11 11 11 12 12 11 10 10 11 14 16 18 17 16 16 15 15 16 17 17 15 13 14 15 15 14 12 11 12 12 12 14 15 13 14 14 12 10
31 32 33 34 34 34 35 35 35 35 35 35 34 33 32 31 30 29 29 28 28 26 23 22 21 22 22 22 22 22 20 19 18 16 15 14 13 12 10 11 14 14 14 13 13 13 13 13 13 13 13 13 13 12 12 13 15 17 18 17 17 15 13 13 14 16 18 18 16 15 16 16 16 15 13 12 11 11 12 12 11 13 14 13 12
32 32 33 34 33 34 35 36 36 36 36 35 33 32 31 31 30 30 29 28 28 27 24 23 23 23 23 22 22 22 21 20 19 17 16 14 14 14 12 12 15 16 15 15 15 15 15 15 15 15 15 15 14 13 13 13 14 16 16 16 16 13 11 11 13 13 16 19 18 16 17 17 17 17 15 14 13 12 11 10 9 11 13 12 11
31 32 32 32 33 34 35 37 37 36 35 34 32 30 30 31 31 30 29 29 29 28 25 23 23 23 23 23 22 20 19 19 18 17 17 15 16 16 14 12 15 19 18 16 17 17 16 16 16 15 15 14 13 13 12 12 13 14 14 14 14 12 11 11 12 13 15 18 19 18 18 17 18 18 17 16 16 14 13 13 12 12 12 12 12
30 31 31 32 33 34 35 35 35 34 33 32 31 30 30 31 31 30 30 30 30 29 27 25 24 24 23 22 21 20 18 17 16 16 16 16 18 19 15 12 15 20 20 19 18 17 17 16 16 14 13 13 12 12 12 11 11 12 14 14 14 12 11 12 13 14 15 17 18 19 18 17 17 18 18 18 17 17 16 16 15 15 14 13 13
30 31 32 32 32 33 35 35 34 33 32 32 32 31 31 31 31 32 32 32 31 29 28 27 26 25 24 22 22 21 20 19 18 16 16 16 17 18 15 13 16 21 23 21 19 18 17 16 15 14 13 12 11 11 12 11 11 12 13 15 15 13 12 13 13 14 15 16 17 18 18 17 17 16 16 16 16 16 16 16 16 15 15 15 14
31 31 32 32 32 33 34 34 33 33 32 32 32 32 32 32 32 32 33 32 31 30 29 29 28 28 26 25 24 23 21 19 18 17 17 16 17 17 15 14 18 22 23 21 20 18 16 15 15 14 13 12 11 10 9 10 12 11 11 12 13 12 12 11 11 11 13 14 16 15 16 17 18 17 16 15 15 14 14 15 15 15 15 15 15
32 32 31 31 32 32 32 33 33 32 33 34 34 34 34 34 33 33 33 33 32 31 30 30 31 30 28 27 25 24 21 19 18 17 17 16 17 17 15 15 20 24 23 21 19 17 15 14 14 12 11 10 10 9 9 9 10 11 10 10 9 9 8 8 8 8 9 12 14 14 13 13 14 15 16 17 17 16 15 15 14 14 14 14 15
31 30 29 29 30 31 31 31 31 31 33 34 34 35 36 35 34 33 32 32 32 33 33 31 29 26 25 25 26 24 22 21 20 19 18 18 18 17 15 17 21 24 23 20 18 16 14 12 10 8 7 7 8 8 9 9 8 9 9 9 9 8 7 6 6 7 8 10 12 13 12 11 10 10 11 13 15 16 16 15 14 13 12 12 15
31 28 28 28 30 31 31 31 30 31 33 33 33 34 35 35 34 34 34 33 33 32 29 25 24 23 23 24 26 26 25 24 23 22 21 20 19 18 17 18 22 24 22 19 17 14 11 8 6 5 5 5 5 6 7 8 9 9 9 9 9 8 6 6 6 7 9 11 12 12 12 11 10 8 7 7 8 10 11 11 12 12 10 11 12
29 28 28 29 29 30 31 31 31 31 32 33 34 34 34 35 36 37 38 38 36 33 28 26 28 31 30 28 27 26 26 27 27 26 25 23 22 21 19 20 24 24 21 18 15 11 8 6 5 5 5 5 4 5 7 9 11 11 10 9 8 6 6 7 7 7 8 9 10 10 11 10 9 8 7 6 6 6 6 7 8 9 9 9 10
26 25 26 27 29 30 30 31 31 30 30 30 30 31 33 35 36 37 39 39 38 35 32 31 34 34 32 31 30 29 29 30 29 28 26 24 24 23 21 23 26 24 20 17 13 9 7 6 5 5 5 6 6 5 7 12 14 12 9 7 5 4 6 7 7 7 7 6 7 8 8 7 7 7 6 6 6 6 7 8 9 9 10 11 10
25 25 25 26 28 29 29 29 29 29 29 29 28 27 27 29 31 32 34 34 32 29 28 30 31 30 29 31 31 31 31 31 29 26 25 24 23 22 22 24 26 23 19 15 12 9 8 7 5 5 6 9 10 8 9 14 16 13 10 8 5 4 5 6 7 7 7 6 6 6 6 6 6 5 6 6 6 7 8 10 11 11 12 12 11
25 25 27 28 29 30 29 27 27 27 28 29 29 26 24 24 26 28 29 29 27 23 23 26 25 22 24 28 30 28 28 28 27 25 24 22 22 21 22 24 25 22 18 15 12 10 9 7 4 3 5 11 14 13 11 14 15 12 9 9 7 6 6 6 6 5 4 4 5 5 6 7 7 7 7 7 6 6 7 9 11 12 12 12 10
27 26 26 26 27 28 29 29 28 28 27 27 27 27 27 26 24 21 22 24 22 18 19 21 19 18 22 28 29 26 26 26 26 25 23 23 23 22 21 22 22 20 17 15 13 11 9 7 4 3 7 12 15 16 15 15 13 11 10 10 9 7 6 6 6 5 4 4 3 5 7 8 8 8 9 9 8 7 8 10 12 12 12 12 11
26 26 25 23 21 21 24 28 30 30 29 29 30 31 30 27 23 20 19 20 19 17 17 17 17 19 24 26 26 25 26 26 26 25 24 24 24 23 21 19 18 17 15 15 14 12 11 8 5 5 9 13 15 17 18 17 14 10 9 11 10 8 6 6 6 6 5 5 4 5 8 9 8 8 9 10 10 10 12 14 14 13 13 13 13
21 24 27 29 28 25 24 26 29 31 32 33 33 31 29 27 26 25 23 21 19 19 18 17 18 22 25 24 24 24 24 25 27 26 26 26 25 23 20 17 16 16 16 15 15 15 13 10 8 7 11 13 14 16 18 18 15 10 8 9 11 8 6 6 6 5 5 5 4 6 10 10 8 7 8 10 12 13 14 16 16 14 15 15 14
16 18 24 28 29 28 28 29 30 31 33 33 32 29 27 27 28 27 26 24 23 22 22 22 23 25 26 25 24 23 22 24 27 27 26 26 25 23 20 18 19 19 18 17 17 17 14 11 9 9 13 15 14 15 16 17 15 11 9 9 10 9 7 7 7 6 6 5 4 6 10 10 8 8 9 10 11 13 15 16 16 15 15 15 13
18 18 21 23 23 24 26 28 29 31 32 32 31 29 28 27 27 27 26 25 25 25 25 25 25 27 27 27 25 23 22 23 25 26 26 27 25 23 22 23 22 22 20 19 18 18 15 11 9 11 14 16 15 14 14 14 13 11 10 11 11 9 9 9 7 7 6 5 5 7 11 11 10 10 9 9 10 12 14 15 15 14 14 13 12
21 21 22 23 23 23 24 25 27 29 31 31 30 28 27 27 27 27 26 25 26 27 27 26 26 27 28 28 27 25 24 24 24 25 27 27 26 24 24 24 23 23 22 20 20 20 16 11 10 13 15 15 14 14 13 12 11 11 12 13 12 10 11 11 8 7 7 5 5 7 10 10 10 10 10 10 10 11 12 13 14 14 13 11 11
23 23 24 24 24 24 24 24 24 26 27 28 28 28 27 26 27 26 26 26 27 27 26 25 26 27 29 29 29 28 27 27 28 29 29 29 28 27 26 24 23 23 23 22 22 21 17 11 10 14 16 15 14 14 13 12 11 10 12 14 14 12 12 12 9 8 8 6 5 6 9 9 8 9 11 11 11 10 11 12 13 13 12 11 10
22 23 24 25 25 26 26 25 25 25 25 25 26 27 27 26 26 26 26 26 26 26 27 27 27 28 29 29 29 29 29 29 30 32 32 31 30 28 26 25 24 23 23 23 24 23 17 12 12 15 16 15 14 13 13 12 11 10 11 14 13 12 13 14 12 10 9 7 5 6 8 8 8 9 10 12 12 11 12 12 11 10 11 10 8
21 22 24 25 25 25 26 26 27 27 26 25 26 27 27 27 27 27 27 27 27 27 29 29 29 29 30 30 31 31 31 31 32 33 33 32 30 29 27 25 24 23 23 24 25 24 19 14 13 15 17 16 14 14 14 13 12 10 12 14 13 12 13 14 13 11 10 9 8 7 7 8 10 10 10 10 11 12 12 12 11 9 9 8 6
21 22 24 25 25 24 24 24 25 26 26 26 26 27 28 28 27 27 28 27 27 28 29 29 30 30 31 32 32 32 33 33 33 34 33 32 31 29 27 25 24 23 23 25 26 24 20 17 15 16 18 17 16 15 14 14 14 12 13 14 14 13 13 14 13 11 12 11 10 9 8 8 10 11 11 9 8 10 11 11 10 9 9 8 6
21 22 24 24 24 24 24 23 24 25 25 25 26 27 28 28 27 27 27 27 27 27 28 28 28 29 31 32 32 33 33 33 33 33 33 32 31 29 27 26 25 24 24 25 25 23 20 18 18 19 19 18 18 17 15 15 16 15 15 15 14 13 13 14 14 13 13 12 10 10 10 8 8 11 12 9 6 9 12 12 10 9 9 9 7
21 22 23 24 23 23 23 23 23 23 23 23 24 25 26 27 26 26 26 26 26 27 26 26 27 29 31 32 33 33 33 33 32 32 32 31 31 30 28 26 25 25 25 25 25 21 18 18 20 22 20 18 18 18 17 17 17 17 17 17 16 13 13 15 16 15 14 13 12 11 12 10 9 11 12 9 6 8 13 14 11 9 9 9 8
21 21 22 23 23 23 23 23 23 24 23 23 22 23 25 26 26 26 26 26 26 26 26 27 28 29 30 32 33 34 34 34 32 32 32 31 31 30 28 26 26 26 26 27 26 22 18 18 21 22 21 18 18 19 19 18 18 18 18 17 18 16 15 16 18 17 15 14 13 13 12 12 11 11 11 9 6 8 14 16 13 10 10 9 8
21 21 21 21 21 21 22 23 24 24 23 23 22 23 24 26 26 26 26 26 26 26 26 27 28 29 31 32 34 35 36 35 33 32 32 31 30 29 28 26 25 26 28 29 28 25 21 20 22 22 21 19 19 20 19 18 19 20 19 17 18 18 17 16 16 17 17 16 15 14 13 13 12 11 11 10 8 9 14 16 14 12 11 10 8
21 21 21 21 21 21 22 23 24 24 24 24 24 23 24 25 26 27 27 27 26 26 26 27 28 30 31 33 34 35 36 35 35 34 33 32 31 29 27 25 25 26 28 29 29 27 24 21 22 23 21 19 20 20 18 17 19 21 21 20 19 18 16 15 15 17 18 17 15 14 15 15 13 12 11 10 9 11 15 16 14 13 12 10 9
21 21 21 22 22 21 22 23 24 24 25 25 25 24 24 25 26 27 27 27 26 26 27 28 29 30 32 33 34 35 35 35 35 35 34 33 32 29 26 24 24 24 25 27 29 29 26 23 23 24 22 20 20 20 18 16 17 19 21 22 21 19 16 15 16 17 18 17 16 15 15 15 14 12 11 9 9 11 15 16 15 13 12 11 11
22 22 23 23 22 21 21 22 23 25 25 25 25 25 25 26 27 27 27 27 27 27 28 29 30 31 32 33 33 33 33 32 33 33 33 33 32 28 25 23 23 23 23 23 26 29 28 24 22 23 24 22 21 20 19 17 17 18 20 21 21 19 17 16 17 18 19 18 17 17 16 15 14 13 11 10 10 12 14 16 16 14 12 12 11
24 23 24 24 23 23 22 22 23 25 26 26 26 26 26 27 27 28 28 28 28 28 29 30 30 30 31 31 31 31 31 31 31 31 31 31 30 28 25 23 22 23 23 22 24 26 27 24 22 23 25 24 22 20 20 19 18 19 19 20 19 18 17 17 17 18 19 19 19 18 17 15 15 15 14 13 13 13 15 16 15 13 12 12 11
27 26 26 26 25 25 25 24 24 25 25 25 26 27 27 28 28 28 28 28 28 29 29 30 31 31 31 31 31 31 31 31 30 30 29 28 28 27 27 26 24 24 24 25 25 25 25 24 23 24 25 24 22 20 20 20 19 19 19 20 20 18 17 17 17 18 20 20 20 18 18 17 16 16 16 16 15 14 14 14 13 12 11 12 12
29 29 29 28 28 27 27 26 25 25 25 25 25 26 26 27 29 29 29 30 30 30 30 31 31 32 32 32 32 33 33 32 30 29 29 28 27 27 28 28 27 25 25 27 28 26 25 25 24 24 25 24 23 21 20 21 21 19 18 20 22 21 19 18 18 19 20 20 19 18 17 18 19 17 15 15 16 15 14 13 13 12 11 12 12
Wind_Direction
193 197 200 203 204 205 207 208 211 217 223 228 232 234 238 246 263 235 173 166 168 170 166 162 159 151 134 106 74 57 56 63 65 63 62 61 68 82 84 76 72 70 62 52 48 51 55 53 48 44 42 37 31 28 29 30 31 31 28 26 27 27 19 10 337 314 353 13 20 26 37 41 42 46 52 59 65 64 65 76 88 87 79 79 75
193 196 200 202 204 208 211 210 212 218 224 228 231 235 240 246 241 199 176 170 171 170 164 160 158 151 130 102 92 82 79 81 74 64 64 77 90 96 91 81 76 73 62 52 51 56 56 52 45 39 37 34 32 32 32 34 35 33 33 32 31 33 27 15 3 330 348 13 28 40 47 45 46 52 58 66 74 78 82 89 92 90 86 85 78
194 196 199 202 204 210 214 213 213 219 225 229 233 238 240 228 204 190 178 171 169 168 166 164 160 152 135 123 116 105 95 86 75 74 87 98 102 100 94 88 84 77 64 54 55 58 55 50 41 34 34 36 37 37 37 40 42 40 39 39 40 43 43 34 23 3 358 17 31 39 44 47 51 57 62 69 80 87 91 94 95 91 87 85 83
194 196 198 202 205 211 216 214 214 218 224 231 236 235 224 199 189 184 175 169 165 162 161 160 155 145 135 129 122 112 101 92 89 94 101 105 105 101 98 95 91 85 71 59 59 59 54 49 41 32 33 38 39 39 40 42 45 46 45 46 49 51 54 55 50 43 36 32 35 39 46 52 52 56 65 71 79 88 92 93 93 91 86 81 79
193 195 198 203 207 213 218 217 215 217 225 230 225 210 193 181 178 176 170 165 162 159 158 155 151 144 134 130 128 120 107 102 105 105 105 107 106 105 106 101 95 95 82 63 60 62 59 53 42 31 31 38 39 38 40 43 46 49 49 50 55 59 62 62 59 56 50 40 36 42 50 55 55 56 64 75 83 88 89 88 90 91 88 84 80
194 196 199 204 208 213 220 220 217 219 221 213 195 182 177 174 172 171 170 168 165 162 160 155 150 141 133 135 135 126 116 110 110 110 110 110 110 111 111 104 101 104 94 69 60 59 57 53 45 35 32 38 40 38 40 45 48 51 54 55 58 64 66 65 62 59 54 46 41 42 46 49 51 53 60 75 86 88 87 86 86 88 90 87 82
195 198 200 204 208 213 220 221 220 220 210 190 180 175 173 173 172 172 175 175 172 169 163 155 148 140 138 142 142 134 125 118 115 116 116 115 117 120 119 112 108 107 103 86 62 46 44 52 54 46 37 36 39 38 41 49 54 57 60 62 63 65 65 64 64 60 55 49 43 40 41 45 48 52 64 79 82 82 86 88 86 88 89 85 79
196 199 202 204 206 211 218 222 220 215 198 181 179 175 172 174 174 174 175 176 175 171 166 159 150 144 144 146 147 143 134 128 126 125 124 125 127 128 129 127 120 113 112 102 74 62 66 73 70 52 36 34 43 43 42 52 62 64 65 65 66 66 63 61 61 58 54 51 46 43 42 43 44 48 59 72 72 73 84 91 90 87 83 77 75
196 199 203 204 204 207 216 217 209 198 186 177 174 172 172 174 173 173 174 174 172 170 168 164 155 149 148 150 151 150 145 140 138 134 132 133 134 131 132 135 131 126 123 109 86 83 88 82 59 27 19 33 52 52 49 55 65 66 65 64 63 63 62 59 57 54 53 51 47 45 43 38 36 38 45 59 72 81 90 95 92 87 82 75 73
196 198 201 200 196 196 199 194 186 179 174 171 171 171 172 173 172 173 175 175 174 172 168 164 157 152 151 155 157 157 154 150 148 144 139 137 136 130 129 134 139 143 139 115 95 93 88 42 2 351 14 53 67 64 58 58 66 67 64 59 57 58 59 58 55 52 52 50 44 41 41 34 33 39 46 61 86 96 95 94 90 86 83 77 70
195 197 199 194 186 181 176 171 170 169 167 168 169 171 172 173 174 175 176 176 175 173 169 162 155 151 153 159 163 162 157 155 156 154 146 142 141 136 136 139 140 146 152 133 109 102 33 357 353 15 89 90 88 85 75 67 69 71 68 62 56 55 56 56 54 53 52 50 45 42 38 33 37 48 57 70 91 101 98 95 92 87 84 80 73
194 196 196 188 180 178 172 167 167 167 167 169 171 173 175 175 176 178 178 178 175 170 167 161 154 150 154 160 164 161 157 154 156 157 153 149 148 146 145 148 152 159 173 173 155 108 30 39 60 97 107 102 101 99 91 82 76 74 74 70 63 60 58 56 54 54 53 52 49 43 37 35 43 54 64 77 93 102 100 96 95 93 90 88 86
194 194 192 185 180 179 176 172 170 170 171 174 175 177 179 179 180 181 179 178 174 169 166 161 155 154 156 158 159 158 155 152 151 154 153 151 149 142 129 117 114 124 145 159 148 106 86 89 92 99 105 109 110 103 98 97 91 82 78 72 64 61 59 57 56 57 58 57 54 49 43 43 49 58 75 96 106 106 102 98 99 100 97 96 95
193 191 188 185 182 180 178 177 175 174 176 179 180 182 183 183 183 182 180 177 173 169 167 163 158 159 161 158 155 153 151 151 155 157 155 151 145 130 109 94 89 95 108 120 115 107 102 98 95 98 105 114 117 106 100 102 96 81 71 65 61 58 54 55 58 60 60 59 57 54 52 53 59 70 90 112 117 113 110 110 110 106 103 102 98
191 189 186 184 183 182 180 179 178 178 181 183 184 185 186 185 182 181 180 179 176 172 170 167 161 162 164 161 156 153 151 151 157 160 156 150 140 121 99 86 85 92 101 107 108 107 104 99 97 100 107 115 119 108 101 103 92 71 63 66 67 64 57 55 58 60 59 59 59 60 61 63 72 86 98 112 118 117 117 120 118 114 110 103 96
188 187 185 184 184 184 182 181 181 182 183 184 185 186 186 185 183 181 180 179 178 175 171 168 164 163 165 164 159 156 154 154 157 158 153 147 136 119 102 90 90 99 105 107 107 106 106 105 104 106 110 115 116 107 100 98 84 70 74 82 82 75 69 64 62 61 61 62 65 69 71 73 82 96 105 115 119 119 120 121 122 121 113 99 87
187 186 186 186 187 186 185 184 183 184 185 186 187 188 189 186 183 182 180 179 177 176 171 167 165 166 167 167 165 161 157 157 157 152 148 145 139 131 117 100 99 108 111 111 110 109 109 110 111 113 115 117 117 112 103 95 86 85 92 94 89 82 76 70 68 67 67 70 75 79 82 86 95 103 111 116 121 126 126 123 124 123 113 96 84
188 187 188 189 190 189 189 189 188 187 188 189 191 191 189 186 184 184 184 181 177 175 171 166 167 170 170 169 168 164 160 162 162 157 152 149 147 147 137 114 111 116 117 115 114 113 114 116 117 119 119 118 117 112 102 94 92 97 102 100 93 87 80 73 69 67 67 72 80 86 87 90 98 107 114 118 123 131 129 124 128 129 116 104 102
191 189 190 192 191 191 191 192 192 191 191 193 194 192 188 184 183 184 184 181 175 173 171 168 168 173 173 171 171 168 165 167 170 170 166 159 158 160 152 130 124 126 123 120 117 116 116 116 116 116 116 114 111 107 102 99 100 104 107 105 99 92 82 72 67 64 64 67 74 83 86 88 95 102 109 117 123 124 120 120 130 131 121 116 119
193 192 193 193 192 191 192 193 195 196 195 195 193 190 186 183 182 181 180 177 173 171 172 171 170 172 174 174 174 174 172 172 176 179 178 173 171 170 158 138 132 133 129 124 121 119 117 115 114 114 113 111 108 104 100 100 104 110 114 110 104 99 87 74 68 65 66 67 70 79 86 89 93 97 101 107 110 110 110 112 121 127 127 128 127
194 194 195 194 192 193 194 195 197 198 197 195 190 185 184 183 181 178 175 172 171 171 173 172 169 171 176 178 178 178 178 178 180 182 184 186 184 176 163 145 140 138 133 129 126 122 120 118 116 116 115 111 106 101 97 98 103 110 116 115 110 106 96 80 72 71 73 72 72 77 84 90 92 94 97 100 101 101 102 102 103 109 116 119 116
194 195 196 195 194 194 195 196 197 196 194 191 186 181 181 181 178 175 172 171 172 172 172 170 168 170 177 181 181 179 179 181 183 185 190 193 191 184 173 155 148 145 138 134 132 128 126 124 120 119 116 109 103 95 91 96 105 109 111 112 112 110 102 90 82 79 78 75 73 74 78 85 90 92 93 94 94 94 94 94 96 98 99 101 105
197 198 198 196 195 194 195 195 195 194 192 190 184 179 177 177 176 174 174 172 172 171 170 169 169 171 176 181 183 182 181 181 183 186 189 189 187 182 173 160 156 152 144 140 138 134 131 129 124 123 120 114 110 102 91 91 103 113 114 110 106 104 102 97 92 87 83 80 78 75 75 80 88 93 95 94 92 91 89 88 88 90 91 92 94
199 200 198 196 194 194 194 194 193 192 190 186 181 177 175 175 174 175 175 174 172 171 171 170 170 173 176 179 182 184 182 179 179 181 182 181 178 175 167 160 158 153 146 144 142 139 137 134 130 131 129 124 124 122 111 102 103 112 123 122 112 105 102 101 98 95 92 88 85 83 82 84 87 92 96 97 95 93 92 91 89 88 89 91 94
199 198 196 194 193 192 192 192 191 191 189 185 181 178 176 175 174 175 176 176 175 173 173 175 177 177 176 175 178 182 181 176 176 177 177 177 177 173 167 163 159 153 149 148 147 144 143 142 138 137 137 133 129 126 124 119 111 111 119 127 125 115 107 106 104 100 100 98 94 94 95 92 89 91 94 94 92 89 89 92 93 93 95 97 99
196 195 193 191 191 190 189 188 188 189 187 185 183 181 178 176 175 175 177 179 180 179 179 180 179 176 173 174 176 178 178 177 178 177 174 176 178 174 171 168 162 156 152 152 151 151 150 148 146 146 147 149 144 133 126 122 120 123 123 122 124 121 115 117 117 106 107 110 106 102 102 99 93 92 94 94 90 88 87 87 88 91 96 101 101
192 192 190 189 189 188 187 186 186 186 184 183 183 182 181 179 177 177 180 182 184 184 183 178 173 174 177 178 177 178 178 179 180 177 175 177 179 177 176 173 167 161 159 159 159 159 158 159 165 170 173 177 174 167 159 143 130 132 137 134 130 125 115 117 127 122 115 116 115 111 110 109 103 96 96 96 92 90 88 85 86 89 93 97 98
192 188 188 186 185 186 187 185 184 184 183 183 182 181 181 181 181 184 186 187 187 187 183 178 178 182 183 181 177 176 179 183 183 181 179 180 180 181 181 177 171 167 167 167 165 165 169 179 186 186 190 193 183 182 190 174 148 134 137 140 137 132 120 115 128 137 129 122 121 119 117 116 109 97 95 104 107 104 96 86 87 92 97 101 100
193 186 184 182 182 185 186 186 184 182 181 182 182 182 184 186 186 189 192 193 193 191 187 185 186 186 185 182 178 177 182 188 189 186 184 183 185 188 187 180 174 171 170 170 172 178 185 194 203 206 210 205 186 163 170 172 161 148 145 146 142 145 139 126 126 138 141 134 128 123 120 118 107 95 96 109 119 122 115 109 107 105 105 109 112
184 180 180 179 181 184 184 184 182 179 178 179 180 181 184 188 190 193 195 196 197 196 193 190 188 189 190 189 187 188 191 191 189 187 185 186 191 194 189 179 174 173 174 179 189 199 202 211 230 241 230 212 198 182 167 167 165 159 155 152 142 144 157 150 138 140 146 147 140 132 129 127 118 107 108 116 125 128 121 117 119 113 104 105 115
177 179 181 181 184 185 181 178 176 174 176 178 177 174 176 184 193 198 197 197 199 201 198 193 192 200 202 197 195 197 196 191 187 186 186 186 190 190 182 177 177 180 184 194 206 213 216 226 244 237 204 197 194 188 174 167 166 165 165 160 144 131 148 163 162 155 154 158 160 155 145 136 126 115 110 116 136 149 137 125 122 113 100 98 108
178 179 180 182 185 184 179 173 170 170 172 171 172 175 178 181 187 195 196 197 200 203 200 197 203 215 213 204 202 201 196 189 187 187 186 186 186 182 175 176 183 188 195 207 217 222 224 231 234 194 180 182 186 187 180 172 167 167 170 170 158 136 131 142 144 140 132 129 150 169 162 149 139 126 112 111 127 152 154 142 130 116 103 101 105
182 178 173 175 182 182 175 170 168 169 169 169 175 184 187 182 179 180 185 192 196 197 198 204 213 217 212 211 212 209 199 191 189 189 187 187 185 179 175 179 188 194 202 213 221 226 228 230 233 211 186 175 174 181 183 178 172 167 171 172 164 144 129 135 138 133 122 106 109 148 162 158 151 142 126 113 112 127 142 143 134 120 111 109 108
178 173 170 175 182 182 177 174 172 170 172 176 182 187 188 186 183 180 178 179 181 183 191 202 211 214 213 215 216 213 203 195 192 191 191 190 188 184 185 189 195 200 208 219 227 229 228 228 229 215 190 174 167 172 179 180 177 169 164 167 165 151 140 153 164 155 134 109 102 142 161 158 144 134 133 124 113 116 133 142 136 123 118 118 115
183 176 174 177 181 180 179 179 176 173 174 179 184 186 187 187 186 183 180 177 175 180 189 197 203 208 212 212 212 212 207 200 196 196 196 195 194 193 195 198 202 205 213 225 231 229 225 223 223 209 191 181 174 172 175 179 180 175 164 165 172 172 164 165 175 176 157 126 111 143 162 160 139 121 127 133 124 119 130 143 143 131 123 122 118
195 188 184 183 182 180 178 176 175 175 176 180 184 187 188 187 185 184 185 183 180 182 190 197 201 204 207 208 209 210 207 202 199 201 202 202 200 198 198 201 204 209 217 226 229 224 218 217 216 201 188 184 184 185 183 183 187 191 187 176 172 176 176 170 169 173 168 144 121 139 155 158 148 134 131 134 131 124 127 140 147 140 130 125 120
189 186 183 183 183 181 178 176 177 179 179 181 184 186 186 186 186 186 186 184 183 186 192 198 200 201 203 205 206 206 204 202 202 204 206 205 204 203 204 207 210 215 221 227 225 218 213 214 213 201 191 187 188 190 190 187 184 189 194 190 182 179 177 174 171 171 167 151 133 144 153 154 151 148 144 139 136 131 129 135 145 147 140 133 129
191 191 188 186 185 183 180 178 178 179 179 180 182 184 184 185 186 187 186 185 187 192 196 199 201 201 201 201 202 202 202 202 202 202 203 204 205 207 211 216 219 223 226 226 220 214 212 213 211 204 197 193 193 192 191 189 184 180 184 188 189 188 184 180 180 181 176 163 145 152 161 161 157 153 149 145 142 139 135 135 141 147 147 143 139
191 194 195 193 190 187 184 181 180 180 179 179 180 181 183 184 185 187 187 188 190 195 198 201 203 204 202 200 199 198 197 197 198 200 202 204 208 211 215 219 222 226 228 223 216 213 213 212 208 203 199 199 203 200 195 194 194 190 186 185 186 190 190 187 183 181 180 178 169 160 161 165 165 160 153 150 148 147 146 144 142 146 150 149 141
190 190 191 190 188 186 184 182 181 182 181 181 182 183 184 185 187 187 189 191 193 196 200 202 203 204 203 202 199 196 194 195 197 200 203 207 210 213 216 218 220 223 224 219 214 214 215 213 209 206 204 204 205 203 200 200 199 194 189 185 181 179 181 181 181 181 185 191 194 185 171 168 171 171 164 158 157 157 156 154 152 150 152 153 143
194 189 190 190 188 186 182 181 183 184 184 185 186 186 187 189 189 190 192 194 196 197 200 203 204 203 202 203 202 200 198 198 200 203 206 210 212 214 215 216 218 220 221 217 214 214 216 217 215 212 208 206 205 206 207 209 205 195 185 184 184 181 180 180 183 187 189 191 196 197 187 178 178 181 178 173 173 174 169 163 159 157 156 154 149
198 192 189 189 189 186 184 185 187 188 188 189 190 190 191 191 191 192 194 196 197 199 201 203 204 202 202 202 202 202 202 203 204 206 209 212 215 217 217 218 219 219 219 216 213 214 219 222 219 214 211 210 210 212 211 209 205 200 195 194 196 196 195 193 191 189 189 192 196 200 198 195 193 192 191 189 187 186 182 174 165 162 160 156 151
205 198 193 192 192 191 190 190 190 190 191 193 194 194 194 194 194 196 197 198 200 202 202 202 203 203 203 203 202 203 205 207 209 211 214 216 219 221 222 222 221 220 218 215 212 215 225 226 218 214 214 216 216 217 217 214 208 203 202 204 206 206 206 204 199 193 193 198 201 200 200 202 201 197 195 192 185 183 184 180 169 158 154 150 138
211 205 198 196 196 195 194 193 193 193 195 196 196 197 197 198 198 199 201 203 204 205 205 205 204 204 204 204 204 205 207 210 213 217 220 222 224 226 227 226 224 222 219 217 215 219 227 226 217 215 219 222 221 221 224 225 218 207 203 208 213 213 212 209 203 198 198 201 200 196 196 200 203 201 201 204 203 190 184 181 176 165 157 153 145
212 208 202 199 197 196 195 196 196 197 197 197 198 199 200 200 202 203 205 207 208 208 208 208 207 207 207 207 208 209 211 215 218 222 226 228 230 231 231 231 229 226 222 220 219 222 226 224 219 219 223 224 222 222 226 228 222 213 207 209 213 214 214 213 209 206 205 206 204 201 201 201 200 199 202 209 215 201 187 182 180 177 174 172 170
212 209 205 201 199 197 197 198 198 199 199 198 200 201 202 203 205 206 207 209 210 209 209 210 210 210 211 212 213 214 216 219 222 226 229 232 234 235 235 236 235 231 227 225 223 225 225 222 220 222 225 224 221 221 224 226 223 218 213 212 215 218 221 222 218 212 207 204 204 206 206 203 202 206 211 213 210 205 198 191 185 183 187 192 194
215 213 209 205 203 201 200 199 198 200 201 201 203 204 205 206 208 209 210 212 212 211 211 212 212 212 214 217 218 220 222 224 226 229 231 233 236 237 237 239 238 235 231 227 226 226 226 224 221 223 227 226 223 221 222 223 220 216 213 214 219 225 227 222 212 204 199 198 199 202 204 203 202 209 219 217 205 201 203 200 194 192 197 201 202
217 217 215 211 208 205 205 203 200 201 203 204 205 207 208 209 211 211 212 213 213 212 213 213 214 215 216 219 222 225 227 228 230 231 232 234 236 237 237 236 234 232 230 228 225 224 224 224 224 225 226 227 226 223 222 221 216 213 213 216 221 226 225 216 205 200 198 199 199 201 205 207 203 203 210 212 202 196 198 199 201 204 205 201 200
216 216 215 214 212 211 210 209 206 206 206 206 207 209 210 211 212 214 214 215 215 214 214 214 215 217 218 220 223 227 230 231 232 232 232 233 234 234 231 228 227 230 231 230 225 221 220 223 227 227 227 228 229 228 225 222 218 216 216 218 222 225 224 218 212 206 203 203 203 205 211 214 211 209 213 214 205 196 194 196 199 205 206 204 205
211 213 213 214 215 215 214 214 213 212 212 211 210 209 211 212 213 214 215 216 216 216 216 216 217 219 221 223 225 228 230 231 232 232 232 233 232 230 226 224 226 232 233 229 224 221 221 225 229 229 226 227 230 231 228 223 221 220 221 222 224 226 225 221 215 210 206 207 210 214 219 219 213 210 213 213 207 202 200 196 194 195 199 203 207
204 207 209 211 214 215 215 215 217 216 216 216 215 213 212 213 213 214 215 216 217 217 218 219 219 222 224 226 228 229 230 231 233 233 233 234 233 229 225 223 227 234 235 229 224 223 224 225 226 225 224 225 229 230 228 225 224 225 226 226 227 228 226 221 215 211 211 214 217 221 226 226 219 212 209 208 206 205 204 198 194 195 199 204 210